094  
ASUS43 KDMX 241906  
RWRIA  
 
WEATHER ROUNDUP FOR IOWA  
NATIONAL WEATHER SERVICE DES MOINES IA  
100 PM CST WED FEB 24 2021  
 
NOTE: "FAIR" INDICATES FEW OR NO CLOUDS BELOW 12,000 FEET WITH NO  
SIGNIFICANT WEATHER AND/OR S TO VISIBILITY
.  
 
* - THESE STATIONS ARE NOT NWS STATIONS...THUS NOT UNDER NWS  
QUALITY CONTROL. THEY ALSO DO NOT REPORT WEATHER SUCH  
AS PRECIPITATION OR FOG.
 
 
IAZ001>003-012>014-020>022-031>034-043>046-242000-  
NORTHWEST IOWA  
 
CITY SKY/WX TMP DP RH WIND PRES REMARKS
 
CARROLL * CLOUDY 34 32 93 NW16G22 30.15R WCI 23  
CHEROKEE * MOSUNNY 35 28 76 NW9 30.17S WCI 27  
DENISON * CLOUDY 34 30 86 NW14 30.19R WCI 24  
LE MARS * MOSUNNY 37 28 70 VRB5 30.17S WCI 34  
MAURICE * FAIR 37 36 93 NW10 30.16S WCI 30  
SHELDON * SUNNY 36 32 87 NW10 30.14R WCI 28  
SIOUX CITY SUNNY 39 28 64 NW13 30.19R WCI 31  
SPENCER MOSUNNY 33 26 75 NW17 30.15R WCI 22  
STORM LAKE * N/A 32 30 93 NW16 N/A WCI 21  

 
 
IAZ055>058-069>071-079>083-090>094-242000-  
SOUTHWEST IOWA  
 
CITY SKY/WX TMP DP RH WIND PRES REMARKS
 
ATLANTIC * N/A 36 28 75 N16 30.16S WCI 26  
AUDUBON * CLOUDY 36 28 75 NW12 30.17R WCI 27  
CLARINDA * CLOUDY 39 34 81 N17 30.18R WCI 30  
COUNCIL BLFS * CLOUDY 36 28 75 N9G16 30.18R WCI 29  
CRESTON * CLOUDY 37 36 93 NW15G21 30.14R WCI 28  
HARLAN * CLOUDY 34 30 86 N16 30.18R WCI 23  
LAMONI PTSUNNY 42 31 64 N17G24 30.11R  
RED OAK * CLOUDY 37 32 81 N13 30.19R WCI 29  
SHENANDOAH * CLOUDY 39 32 75 N14G20 30.17F WCI 31  

 
 
IAZ047>049-059>061-072>074-084-242000-  
CENTRAL IOWA  
 
CITY SKY/WX TMP DP RH WIND PRES REMARKS
 
AMES CLOUDY 36 28 73 NW17G26 30.12R WCI 26  
ANKENY * PTSUNNY 37 30 75 N16 30.13S WCI 28  
BOONE * CLOUDY 36 36 100 N18 30.10R WCI 25  
CHARITON * MOSUNNY 39 37 93 N15 30.10R WCI 31  
DES MOINES MOSUNNY 39 29 67 N14 30.12R WCI 31  
GRINNELL* CLOUDY 38 30 74 NW15 30.09R WCI 29  
KNOXVILLE * CLOUDY 37 30 75 NW15 30.10S WCI 28  
NEWTON * CLOUDY 36 32 87 NW13G20 30.09R WCI 27  
PELLA * CLOUDY 38 31 77 NW10 30.12R WCI 30  
PERRY * CLOUDY 35 29 76 NW14 30.14R WCI 26  

 
 
IAZ004>006-015-016-023>025-035-036-242000-  
NORTH CENTRAL IOWA  
 
CITY SKY/WX TMP DP RH WIND PRES REMARKS
 
ALGONA * CLOUDY 32 32 100 NW13 30.12R WCI 22  
CLARION * CLOUDY 32 32 100 N16G22 30.11R WCI 21  
ESTHERVILLE MOSUNNY 31 26 82 NW14 30.13R WCI 21  
FORT DODGE * CLOUDY 34 27 75 NW10G16 30.14R WCI 26  
MASON CITY MOSUNNY 34 26 72 N20 30.09R WCI 23  
FOREST CITY * CLOUDY 34 32 93 N13 30.09R WCI 25  
WEBSTER CITY * CLOUDY 34 30 86 NW18 30.11R WCI 23  
IOWA FALLS * CLOUDY 37 28 69 NW18 30.09R WCI 27  

 
 
IAZ007>011-017>019-026>030-037>042-050>054-066-242000-  
NORTHEAST IOWA  
 
CITY SKY/WX TMP DP RH WIND PRES REMARKS
 
CEDAR RAPIDS CLOUDY 36 30 79 NW13 30.03R WCI 27  
CHARLES CITY * CLOUDY 36 28 75 NW18 30.06R WCI 25  
CLINTON * CLOUDY 37 32 82 NW12 29.99R WCI 29  
DECORAH * N/A 36 32 87 NW16 30.01R WCI 26  
DUBUQUE CLOUDY 37 30 75 N13 29.97R WCI 29  
MONTICELLO * CLOUDY 37 32 81 NW14 30.01R WCI 29  
OELWEIN * CLOUDY 36 30 80 N15 30.04R WCI 26  
WATERLOO MOSUNNY 38 29 70 N17 30.05R WCI 28  

 
 
IAZ064-065-067-068-078-242000-  
EAST CENTRAL IOWA  
 
CITY SKY/WX TMP DP RH WIND PRES REMARKS
 
DAVENPORT CLOUDY 37 31 78 NW14 30.01R WCI 28  
IOWA CITY CLOUDY 38 30 73 NW14G29 30.05R WCI 30  
MT. PLEASANT * CLOUDY 39 32 75 NW20G25 30.06R WCI 30  
MUSCATINE * CLOUDY 39 32 75 NW16G28 30.04R WCI 30  
QUAD CITIES CLOUDY 39 30 70 NW16G28 29.99R WCI 30  

 
 
IAZ062-063-075>077-085>089-095>099-242000-  
SOUTHEAST IOWA  
 
CITY SKY/WX TMP DP RH WIND PRES REMARKS
 
BURLINGTON PTSUNNY 37 31 78 NW18G25 30.04R WCI 27  
FAIRFIELD * CLOUDY 36 36 100 NW13G20 30.07R WCI 27  
FORT MADISON * SUNNY 39 34 81 NW17G23 30.06R WCI 30  
KEOKUK * PTSUNNY 43 34 70 NW16G24 30.05R  
OSKALOOSA * CLOUDY 39 33 79 NW13 30.09S WCI 32  
OTTUMWA CLOUDY 37 31 78 NW18 30.09R WCI 27  
WASHINGTON * CLOUDY 37 36 93 NW20 30.04R WCI 27  

 
 
ABBREVIATIONS USED IN REMARKS  
TC - TEMPERATURES IN CELSIUS  
WCI - WIND CHILL INDEX  
HX - HEAT INDEX  
VSB - VISIBILITY  

 
 
 
 
CLICK HERE TO GO TO PREVIOUS BULLETINS.

The Nexlab IA Page Main Text Page